Home > Weather > Windhoek > Past weeks

Flag for Namibia Weather for the Past 2 Weeks in Windhoek, Namibia

Now
84 °F

Pleasantly warm.


Feels Like: 82 °F
Forecast: 65 / 91 °F
Wind: 7 mph from South

Location: Windhoek

Current Time: Feb 6, 2016 at 4:37:41 PM

Latest Report: Feb 6, 2016 at 4:00 PM


Visibility: N/A

Pressure: 30.12 "Hg (24.91 "Hg at 1680m altitude)

Humidity: 33%

Dew point: 52 °F

Location of WindhoekLocation

Historic Weather in Windhoek — Graph

°F

Windhoek Temperature Yesterday

Maximum temperature yesterday: 91 °F (at 4:00 PM)
Minimum temperature yesterday: 70 °F (at 12:00 AM)
Average temperature yesterday: 77 °F

High & Low Weather Summary for the Past Weeks

 TemperatureHumidityPressure
High91 °F (Feb 5, 4:00 PM)94% (Jan 29, 10:00 PM)30.33 "Hg (Jan 29, 10:00 PM)
Low57 °F (Jan 23, 6:00 AM)14% (Jan 24, 2:00 PM)30.04 "Hg (Jan 22, 5:00 PM)
Average74 °F43%30.17 "Hg
* Reported Jan 22 3:00 PM — Feb 6 3:00 PM, Windhoek, Weather by CustomWeather, © 2016

Note: Actual official high and low records may vary slightly from our data, if they occured in-between our weather recording intervals... More about our weather records

Advertising

Windhoek Weather History for the Previous 24 Hours

 ConditionsComfort  
Time TempWeatherWind HumidityBarometerVisibility
3:00 PM
Sat, Feb 6
90 °FScattered showers. Scattered clouds.8 mph27%30.12 "HgN/A
2:00 PM88 °FPassing clouds.5 mph29%30.15 "HgN/A
1:00 PM88 °FScattered clouds.3 mph35%30.18 "HgN/A
12:00 PM82 °FPassing clouds.5 mph42%30.21 "HgN/A
11:00 AM79 °FSunny.7 mph54%30.21 "Hg10 mi
10:00 AM77 °FSunny.6 mph57%30.21 "Hg10 mi
9:00 AM75 °FSunny.5 mph57%30.21 "Hg10 mi
8:00 AM70 °FSunny.3 mph69%30.21 "Hg10 mi
7:00 AM63 °FSunny.5 mph94%30.21 "Hg10 mi
6:00 AM64 °FClear.2 mph83%30.18 "Hg10 mi
5:00 AM64 °FMild.1 mph88%30.18 "HgN/A
4:00 AM66 °FMild.3 mph83%30.18 "HgN/A
3:00 AM66 °FMild.3 mph83%30.21 "HgN/A
2:00 AM68 °FMild.3 mph78%30.21 "HgN/A
1:00 AM68 °FMild.8 mph78%30.24 "HgN/A
12:00 AM73 °FMild.9 mph53%30.24 "HgN/A
11:00 PM
Fri, Feb 5
72 °FMild.3 mph65%30.18 "HgN/A
10:00 PM73 °FMild.3 mph57%30.15 "HgN/A
9:00 PM73 °FMild.2 mph57%30.12 "HgN/A
8:00 PM75 °FScattered showers. Passing clouds.No wind50%30.12 "HgN/A
7:00 PM77 °FScattered showers. Passing clouds.7 mph42%30.09 "HgN/A
4:00 PM91 °FScattered clouds.3 mph24%30.07 "HgN/A
Weather by CustomWeather, © 2016

See weather overviewHow to use our weather pages